Regional Weather Roundup
Issued by NWS Little Rock, AR

Home | Current Version | Previous Version | Text Only | Print | Product List | Glossary On
Versions: 1 2 3 4 5 6 7 8 9 10 11 12 13 14 15 16 17 18 19 20 21 22 23 24 25 26 27 28 29 30 31 32 33 34 35 36 37 38 39 40 41 42 43 44 45 46 47 48 49 50
000
ASUS44 KLZK 011405
RWRLZK

WEATHER ROUNDUP FOR ARKANSAS
NATIONAL WEATHER SERVICE LITTLE ROCK AR
800 AM CST SUN FEB 01 2015

NOTE: "FAIR" INDICATES FEW OR NO CLOUDS BELOW 12,000 FEET WITH NO
SIGNIFICANT WEATHER AND/OR OBSTRUCTIONS TO VISIBILITY.

ARZ001-003-010-029-011500-
NORTHWEST ARKANSAS

CITY           SKY/WX    TMP DP  RH WIND       PRES   REMARKS
FAYETTEVILLE   LGT RAIN  45  45 100 SW14      29.78R FOG
FORT SMITH     CLOUDY    42  40  92 CALM      29.82R FOG
HARRISON       CLOUDY    49  46  90 W7        29.74S
BENTONVILLE    CLOUDY    43  39  87 SW14      29.77S
ROGERS         LGT RAIN  43  42  97 SW14      29.76R
SILOAM SPGS    CLOUDY    43  36  75 SW9       29.79S
HIGHFILL       CLOUDY    43  42  97 SW13      29.76R
SPRINGDALE     LGT RAIN  45  45 100 SW12G23   29.78R FOG
$$

ARZ004-005-016-011500-
NORTH CENTRAL ARKANSAS

CITY           SKY/WX    TMP DP  RH WIND       PRES   REMARKS
BATESVILLE     CLOUDY    45  43  93 CALM      29.80F
FLIPPIN        CLOUDY    45  39  81 CALM      29.74F
MTN HOME       CLOUDY    44  43  96 S6        29.74F
$$

ARZ040-041-011500-
WEST CENTRAL ARKANSAS

CITY           SKY/WX    TMP DP  RH WIND       PRES   REMARKS
MENA           CLOUDY    50  50 100 W6        29.82R
MOUNT IDA      LGT RAIN  54  51  90 VRB3      29.78R
$$

ARZ009-017-025-026-028-011500-
NORTHEAST ARKANSAS

CITY           SKY/WX    TMP DP  RH WIND       PRES   REMARKS
CORNING        LGT RAIN  43  43 100 W5        29.81F
JONESBORO      LGT RAIN  46  46 100 S12       29.80F FOG
NEWPORT        LGT RAIN  47  47 100 SW6       29.82F FOG
WALNUT RIDGE   CLOUDY    45  41  87 SW8       29.80F
BLYTHEVILLE    LGT RAIN  48  46  93 S20       29.79F
$$

ARZ022-023-033-042-044-011500-
CENTRAL ARKANSAS

CITY           SKY/WX    TMP DP  RH WIND       PRES   REMARKS
LITTLE ROCK    LGT RAIN  55  52  89 S10       29.82S FOG
N LITTLE ROCK  CLOUDY    53  53 100 SW9       29.82S
JACKSONVILLE   CLOUDY    53  53  99 S8        29.81F
SEARCY         RAIN      51  50  96 S8        29.82R
HOT SPRINGS    LGT RAIN  53  51  93 SW6       29.82S
RUSSELLVILLE   LGT RAIN  45  43  93 CALM      29.79S FOG
CLINTON        LGT RAIN  41  39  93 CALM      29.82F VSB 1
$$

ARZ036-011500-
EAST ARKANSAS

CITY           SKY/WX    TMP DP  RH WIND       PRES   REMARKS
WEST MEMPHIS   CLOUDY    51  51 100 S20G29    29.85S
$$

ARZ050-053-066-070-073-011500-
SOUTHWEST ARKANSAS

CITY           SKY/WX    TMP DP  RH WIND       PRES   REMARKS
ARKADELPHIA    CLOUDY    56  56 100 S9        29.83F
CAMDEN         LGT RAIN  55  54  94 MISG      29.86S
TEXARKANA      CLOUDY    56  56 100 SW14      29.84S FOG
EL DORADO      CLOUDY    56  54  93 S10       29.88S
DE QUEEN       LGT RAIN  50  49  96 CALM      29.80S VSB 1
$$

ARZ056-057-069-011500-
SOUTHEAST ARKANSAS

CITY           SKY/WX    TMP DP  RH WIND       PRES   REMARKS
PINE BLUFF     LGT RAIN  53  51  93 S16       29.85F
STUTTGART      CLOUDY    52  48  87 S17       29.84S
MONTICELLO     LGT RAIN  54  51  90 S10G20    29.88F FOG

$$




USA.gov is the U.S. government's official web portal to all federal, state and local government web resources and services.